Regional Weather Roundup
Issued by NWS Wilmington, NC

Home | Current Version | Previous Version | Text Only | Print | Product List | Glossary On
Versions: 1 2 3 4 5 6 7 8 9 10 11 12 13 14 15 16 17 18 19 20 21 22 23 24 25 26 27
000
ASUS42 KILM 170410
RWRILM
RWRILM
REGIONAL HOURLY WEATHER ROUNDUP
NATIONAL WEATHER SERVICE WILMINGTON NC
1200 AM EDT THU APR 17 2014

NOTE: "FAIR" INDICATES FEW OR NO CLOUDS BELOW 12,000 FEET WITH NO
SIGNIFICANT WEATHER AND/OR OBSTRUCTIONS TO VISIBILITY.

...............WFO WILMINGTON COUNTY WARNING AREA...............

......COASTAL NC AND SC COUNTIES......

CITY           SKY/WX    TMP DP  RH WIND       PRES   REMARKS
WILMINGTON     CLEAR     42  30  62 NE9       30.43R
SOUTHPORT      CLEAR     47  34  61 NE10G16   30.42R
N MYRTLE BEACH CLEAR     45  37  73 N7        30.40R
MYRTLE BEACH   PTCLDY    50  37  62 N10       30.39S

......INLAND NC AND SC COUNTIES.......

CITY           SKY/WX    TMP DP  RH WIND       PRES   REMARKS
LUMBERTON      CLEAR     44  31  60 E7        30.42R
ELIZABETHTOWN  CLEAR     43  33  67 E3        30.43R
WHITEVILLE     CLEAR     43  34  71 NE6       30.42R
FLORENCE       CLEAR     41  33  73 E6        30.41R
DARLINGTON     CLEAR     43  32  65 NE6       30.43R

....................REST OF NORTH CAROLINA......................

.........EASTERN NC.........

CITY           SKY/WX    TMP DP  RH WIND       PRES   REMARKS
CAPE HATTERAS  MOCLDY    45  39  79 NE15G26   30.42R
JACKSONVILLE   CLEAR     37  27  65 NE7       30.45S WCI  32
MOREHEAD CITY  CLEAR     43  30  60 N13       30.41S
KENANSVILLE    CLEAR     40  32  71 E3        30.46S
NEW BERN       CLEAR     43  32  65 N12       30.45F
ELIZABETH CITY CLEAR     43  30  60 NE15      30.50R

.........CENTRAL NC.........

CITY           SKY/WX    TMP DP  RH WIND       PRES   REMARKS
RALEIGH DURHAM CLEAR     43  27  53 E10       30.46R
ROCKY MOUNT      N/A    N/A N/A N/A MISG      30.49R
ROANOKE RAPIDS NOT AVBL
FAYETTEVILLE   CLEAR     43  31  62 E8        30.43R
HOFFMAN        CLEAR     41  34  77 NE3       30.44R

.........WESTERN NC.........

CITY           SKY/WX    TMP DP  RH WIND       PRES   REMARKS
CHARLOTTE      CLEAR     46  28  49 E5        30.42R
GREENSBORO     CLEAR     41  24  51 E6        30.43R
HICKORY        NOT AVBL
BOONE          NOT AVBL
ASHEVILLE      NOT AVBL

.....................REST OF SOUTH CAROLINA.....................

.........EASTERN SC.........

CITY           SKY/WX    TMP DP  RH WIND       PRES   REMARKS
CHARLESTON     PTCLDY    49  40  71 NE7       30.36F
BEAUFORT MCAS  CLEAR     54  40  59 E12G21    30.34F
HILTON HEAD    NOT AVBL

.........CENTRAL SC.........

CITY           SKY/WX    TMP DP  RH WIND       PRES   REMARKS
COLUMBIA       CLEAR     50  29  44 E8        30.38R
ORANGEBURG     CLEAR     45  36  70 CALM      30.38S
SUMTER SHAW    CLEAR     40  33  74 NE6       30.39R

.........WESTERN SC.........

CITY           SKY/WX    TMP DP  RH WIND       PRES   REMARKS
GREENVILLE     NOT AVBL
ROCK HILL      CLEAR     39  33  79 CALM      30.42R
ANDERSON       CLEAR     45  31  58 E8        30.37R
CLEMSON        NOT AVBL
GREENWOOD      CLEAR     44  32  62 NE5       30.39R


...................COASTAL AND OFFSHORE REPORTS..................

................LOCAL PIERS AND NC RESERVE................


STATION/POSITION TIME  SKY/WX   TEMP    WIND        PRES    VSBY
                                AIR SEA DIR/SP/G
                 (UTC)          (F)     (DEG/KT/KT) (MB)    (MI)
JOHNY MRCER PIER 0400            48 60   30/ 23/ 26 1029.2R
NC RESRV MASNBRO 0300            51      50/ 19     1028.0S
OCEAN CREST PIER 0400            49 62   60/ 10/ 12 1028.5R
SPRINGMAID  PIER 0400            53 62   60/ 18/ 21 1028.9F


................COASTAL AND OFFSHORE BUOYS................


STATION/POSITION TIME  SKY/WX   TEMP    WIND        PRES    VSBY
                                AIR SEA DIR/SP/G
                 (UTC)          (F)     (DEG/KT/KT) (MB)    (MI)
DIMNDSHOAL 41025 NOT AVBL
CAPE LOOKOUT     0300            46      10/ 22/ 27 1029.3F
ONSLOW BAY 41036 0400            48 65   30/ 21/ 25 1029.6R
WVE H/P(F/S)=  6/11 WND WVE H/P(F/S)=  5/ 7 SWL H/P/D(F/S/D)=  3/ 90/11

5 WRITEBCH 41038 0300            51 60   50/ 21/ 25 1028.8S
MASONBORO  41110 0400               60                N/A
WVE H/P(F/S)=  6/ 6 WND WVE H/P(F/S)=  7/ 6 SWL H/P/D(F/S/D)=  2/ 90/12

WILM HARBR 41108 0400               60                N/A
WVE H/P(F/S)=  5/ 6 WND WVE H/P(F/S)=  5/ 6 SWL H/P/D(F/S/D)=  2/130/11

27WRITEBCH 41037 0300            48      40/ 25/ 29 1029.1S
FRYING PAN 41013 0400            53 65   40/ 23/ 29 1027.5R
WVE H/P(F/S)=  8/ 7 WND WVE H/P(F/S)=  7/ 7 SWL H/P/D(F/S/D)=  3/ 70/10

SUNST NRSH 41024 0300            52      50/ 16/ 17 1024.8R
CAPRS NRSH 41029 0300                    70/ 17/ 21   N/A
EDISTO     41004 NOT AVBL


..........OFFSHORE BUOYS BEYOND 100 NM OFFSHORE...........
.....IN A TRIANGLE---HAT TO BERMUDA TO BAHAMAS TO HAT.....


STATION/POSITION TIME  SKY/WX   TEMP    WIND        PRES    VSBY
                                AIR SEA DIR/SP/G
                 (UTC)          (F)     (DEG/KT/KT) (MB)    (MI)
150E HAT   41001 NOT AVBL
W BERMUDA  41048 0258            70 69  150/  8/ 12 1021.0
WVE H/P(F/S)= 10/11 WND WVE H/P(F/S)=  2/ 4 SWL H/P/D(F/S/D)= 10/320/11

ATLANTIC S 41049 0327            73 74  110/ 19/ 23 1023.2R
WVE H/P(F/S)=  8/10 WND WVE H/P(F/S)=  7/ 8 SWL H/P/D(F/S/D)=  5/ 90/10

E BAHAMAS  41046 0244            78 79   90/ 12/ 14 1019.6R
WVE H/P(F/S)=  5/10 WND WVE H/P(F/S)=  3/ 5 SWL H/P/D(F/S/D)=  5/10

NE BAHAMAS 41047 0339            74 75  110/ 12/ 12 1020.7F
WVE H/P(F/S)=  5/ 9 WND WVE H/P(F/S)=  2/ 5 SWL H/P/D(F/S/D)=  5/ 90/ 9

120E CANVRL41010 0400            72 76   60/ 16/ 19 1021.0S
WVE H/P(F/S)=  8/11 WND WVE H/P(F/S)=  7/ 7 SWL H/P/D(F/S/D)=  5/ 30/11


END



USA.gov is the U.S. government's official web portal to all federal, state and local government web resources and services.